![]() |
EMODnet Physics ERDDAP
Easier access to scientific data |
log in|
Brought to you by EMODnet Physics |
| Dataset Title: | NDBC - Collection of dew point temperature (DEWT) TimeSeries - IN SITU MultiPointTimeSeriesObservation
|
| Institution: | NDBC (Dataset ID: TS_DEWT_NDBC) |
| Information: | Summary
| License
| FGDC
| ISO 19115
| Metadata
| Background
| Subset
| Data Access Form
| Make a graph
|
| Name | Last modified | Size | Description | |
|---|---|---|---|---|
| Parent Directory | - | - | ||
| 44088_TS_DEWT_012018.nc | 26-Oct-2024 18:27 | 1112753 | ||
| 44088_TS_DEWT_012021.nc | 26-Oct-2024 18:27 | 4767604 | ||
| 44088_TS_DEWT_012022.nc | 26-Oct-2024 18:27 | 429572 | ||
| 44088_TS_DEWT_012023.nc | 26-Oct-2024 18:27 | 429588 | ||
| 44088_TS_DEWT_012024.nc | 26-Oct-2024 18:27 | 429591 | ||
| 44088_TS_DEWT_022018.nc | 26-Oct-2024 18:27 | 429271 | ||
| 44088_TS_DEWT_022021.nc | 26-Oct-2024 18:27 | 450142 | ||
| 44088_TS_DEWT_022022.nc | 26-Oct-2024 18:27 | 451318 | ||
| 44088_TS_DEWT_022023.nc | 26-Oct-2024 18:27 | 449042 | ||
| 44088_TS_DEWT_022024.nc | 16-Sep-2024 16:51 | 450129 | ||
| 44088_TS_DEWT_032017.nc | 26-Oct-2024 18:27 | 448220 | ||
| 44088_TS_DEWT_032018.nc | 26-Oct-2024 18:27 | 450899 | ||
| 44088_TS_DEWT_032021.nc | 26-Oct-2024 18:27 | 451291 | ||
| 44088_TS_DEWT_032022.nc | 26-Oct-2024 18:27 | 450753 | ||
| 44088_TS_DEWT_032023.nc | 26-Oct-2024 18:27 | 450410 | ||
| 44088_TS_DEWT_042017.nc | 26-Oct-2024 18:27 | 449880 | ||
| 44088_TS_DEWT_042018.nc | 26-Oct-2024 18:27 | 429816 | ||
| 44088_TS_DEWT_042021.nc | 26-Oct-2024 18:27 | 449753 | ||
| 44088_TS_DEWT_042022.nc | 26-Oct-2024 18:27 | 450220 | ||
| 44088_TS_DEWT_042023.nc | 26-Oct-2024 18:28 | 450181 | ||
| 44088_TS_DEWT_052017.nc | 26-Oct-2024 18:28 | 449868 | ||
| 44088_TS_DEWT_052018.nc | 26-Oct-2024 18:28 | 450095 | ||
| 44088_TS_DEWT_052021.nc | 26-Oct-2024 18:28 | 450877 | ||
| 44088_TS_DEWT_052022.nc | 26-Oct-2024 18:28 | 448613 | ||
| 44088_TS_DEWT_052023.nc | 26-Oct-2024 18:28 | 1144114 | ||
| 44088_TS_DEWT_062017.nc | 26-Oct-2024 18:28 | 1266602 | ||
| 44088_TS_DEWT_062018.nc | 26-Oct-2024 18:28 | 1267520 | ||
| 44088_TS_DEWT_062021.nc | 26-Oct-2024 18:28 | 1266189 | ||
| 44088_TS_DEWT_062022.nc | 26-Oct-2024 18:28 | 5441073 | ||
| 44088_TS_DEWT_062023.nc | 26-Oct-2024 18:28 | 429272 | ||
| 44088_TS_DEWT_072017.nc | 26-Oct-2024 18:28 | 429257 | ||
| 44088_TS_DEWT_072018.nc | 26-Oct-2024 18:28 | 419219 | ||
| 44088_TS_DEWT_072020.nc | 26-Oct-2024 18:28 | 429274 | ||
| 44088_TS_DEWT_072021.nc | 26-Oct-2024 18:28 | 429269 | ||
| 44088_TS_DEWT_072022.nc | 26-Oct-2024 18:28 | 448726 | ||
| 44088_TS_DEWT_072023.nc | 26-Oct-2024 18:28 | 448958 | ||
| 44088_TS_DEWT_082017.nc | 26-Oct-2024 18:28 | 447971 | ||
| 44088_TS_DEWT_082020.nc | 26-Oct-2024 18:28 | 449721 | ||
| 44088_TS_DEWT_082021.nc | 26-Oct-2024 18:29 | 448370 | ||
| 44088_TS_DEWT_082022.nc | 26-Oct-2024 18:29 | 448545 | ||
| 44088_TS_DEWT_082023.nc | 26-Oct-2024 18:29 | 449452 | ||
| 44088_TS_DEWT_092017.nc | 26-Oct-2024 18:29 | 449402 | ||
| 44088_TS_DEWT_092020.nc | 26-Oct-2024 18:29 | 448642 | ||
| 44088_TS_DEWT_092021.nc | 26-Oct-2024 18:29 | 448426 | ||
| 44088_TS_DEWT_092022.nc | 26-Oct-2024 18:29 | 429466 | ||
| 44088_TS_DEWT_092023.nc | 26-Oct-2024 18:29 | 449588 | ||
| 44088_TS_DEWT_102017.nc | 26-Oct-2024 18:29 | 450329 | ||
| 44088_TS_DEWT_102020.nc | 26-Oct-2024 18:29 | 448175 | ||
| 44088_TS_DEWT_102021.nc | 26-Oct-2024 18:29 | 449036 | ||
| 44088_TS_DEWT_102022.nc | 26-Oct-2024 18:29 | 449476 | ||
| 44088_TS_DEWT_102023.nc | 26-Oct-2024 18:29 | 450041 | ||
| 44088_TS_DEWT_112017.nc | 26-Oct-2024 18:29 | 451077 | ||
| 44088_TS_DEWT_112020.nc | 26-Oct-2024 18:29 | 438114 | ||
| 44088_TS_DEWT_112021.nc | 26-Oct-2024 18:29 | 995650 | ||
| 44088_TS_DEWT_112022.nc | 26-Oct-2024 18:29 | 1114145 | ||
| 44088_TS_DEWT_112023.nc | 26-Oct-2024 18:29 | 1112843 | ||
| 44088_TS_DEWT_122017.nc | 26-Oct-2024 18:29 | 1111560 | ||
| 44088_TS_DEWT_122020.nc | 26-Oct-2024 18:30 | 5283933 | ||
| 44088_TS_DEWT_122021.nc | 26-Oct-2024 18:30 | 429571 | ||
| 44088_TS_DEWT_122022.nc | 26-Oct-2024 18:30 | 429596 | ||
| 44088_TS_DEWT_122023.nc | 26-Oct-2024 18:30 | 429589 | ||